sat.trackr.live / text

‹ back to catalog

2024-110C

NORAD 60014 · 2024-110C

PAYLOAD ACTIVE UNKNOWN

§ Identity

Operator
Country
PRC
Launch date
2024-06-06
Launch site
JSC
Launch vehicle
Mass (kg)
RCS (m²)

External: N2YO · Heavens-Above · Gunter

§ Orbital elements

Epoch: 2026-05-25T04:49:03.904032Z

Period
96.12 min
Inclination
97.5446°
Eccentricity
0.0011022
Mean motion
14.98169922 rev/d
Perigee alt
564.9 km
Apogee alt
580.2 km
Semi-major
6,950.7 km
B*
8.9463e-5
RAAN
221.2251°
Arg perigee
221.1183°
Mean anomaly
138.9210°
Rev number
9,836

§ Raw data

2024-110C1 60014U 24110C   26145.20073963  .00001005  00000+0  89463-4 0  99962 60014  97.5446 221.2251 0011022 221.1183 138.9210 14.98169922 98368

JSON: /api/v1/satellites/60014 · /tle

For live sub-satellite position, see the globe view (requires WebGL).

§ Visibility from observer

Set your observer location to see the next 7 days of passes ≥ 10°. The values pass through the URL so the page stays shareable.

No JS? Fill the form by hand. The geolocation button needs JavaScript.